Weather reports worldwide

Advertisment
Nürnberg, Germany (10763): temperature & dewpoint: 08.12.2019 05:00:00 - 14.12.2019 05:00:00 (CET)Nürnberg, Germany (10763): temperature 5cm & temperature -5cm: 08.12.2019 05:00:00 - 14.12.2019 05:00:00 (CET)Nürnberg, Germany (10763): temperature -20cm & temperature -100cm: 08.12.2019 05:00:00 - 14.12.2019 05:00:00 (CET)Nürnberg, Germany (10763): wind speed & gusts: 08.12.2019 05:00:00 - 14.12.2019 05:00:00 (CET)Nürnberg, Germany (10763): wind direction: 08.12.2019 05:00:00 - 14.12.2019 05:00:00 (CET)Nürnberg, Germany (10763): reduced air pressure: 08.12.2019 05:00:00 - 14.12.2019 05:00:00 (CET)Nürnberg, Germany (10763): visibility: 08.12.2019 05:00:00 - 14.12.2019 05:00:00 (CET)Nürnberg, Germany (10763): sunshine duration: 08.12.2019 05:00:00 - 14.12.2019 05:00:00 (CET)Nürnberg, Germany (10763): precipitation: 08.12.2019 05:00:00 - 14.12.2019 05:00:00 (CET)
Date & Time tt [°C] td [°C] tt 5cm [°C] tt -5cm [°C] tt -20cm [°C] tt -100cm [°C] ff [km/h] ff [kn] fx [km/h] fx [kn] dd ppp [hPa] vv [km] sd [min] rr [mm]
14.12.2019 05:00:00 3,0 0,8 2,0 1,7 2,5 6,7 18 10 26 14 SSE 991,9 10 0 0,0
14.12.2019 04:00:00 3,2 0,5 2,1 2,2 2,5 6,7 15 8 27 14 S 992,3 10 0 0,0
14.12.2019 03:00:00 3,6 1,6 2,9 2,5 2,5 6,7 15 8 26 14 S 993,0 10 0 0,0
14.12.2019 02:00:00 4,2 1,9 3,4 2,5 2,4 6,7 15 8 36 19 SW 992,1 10 0 0,0
14.12.2019 01:00:00 3,9 2,0 2,9 2,3 2,3 6,8 16 9 31 17 SSW 992,1 35 0 0,0
14.12.2019 00:00:00 3,9 2,3 2,9 2,4 2,2 6,8 22 12 42 23 SW 991,5 22 0 0,6
13.12.2019 23:00:00 2,9 1,8 2,2 2,1 2,2 6,8 18 10 29 16 SW 990,9 10 0 1,4
13.12.2019 22:00:00 2,9 1,5 2,2 2,2 2,1 6,8 22 12 38 20 SW 989,7 10 0 0,6
13.12.2019 21:00:00 3,4 1,8 2,6 2,2 1,9 6,8 21 11 31 17 SW 988,2 10 0 0,3
13.12.2019 20:00:00 3,9 2,2 3,0 2,0 1,8 6,8 16 9 28 15 SSW 987,3 10 0 0,1
13.12.2019 19:00:00 3,7 2,3 3,0 1,4 1,7 6,8 16 9 29 16 S 986,6 40 0 0,0
13.12.2019 18:00:00 3,8 2,1 3,0 0,8 1,7 6,8 16 9 26 14 SSW 985,7 40 0 0,0
13.12.2019 17:00:00 3,5 2,1 2,6 0,5 1,7 6,8 13 7 23 13 S 984,5 10 0 0,1
13.12.2019 16:00:00 3,3 2,1 2,2 0,5 1,7 6,9 13 7 23 13 SSW 983,3 20 0 0,5
13.12.2019 15:00:00 2,6 1,4 1,7 0,5 1,7 6,9 17 9 40 22 S 982,5 20 0 0,1
13.12.2019 14:00:00 1,8 0,7 0,3 0,5 1,7 6,9 24 13 44 24 SSE 981,6 10 0 0,8
13.12.2019 13:00:00 0,5 0,1 -0,1 0,5 1,7 6,9 24 13 35 19 SE 981,6 2,6 0 1,5
13.12.2019 12:00:00 0,5 -0,2 0,0 0,5 1,8 6,9 22 12 34 18 SE 981,5 2,4 0 0,4
13.12.2019 11:00:00 1,6 -1,0 0,9 0,5 1,8 6,9 21 11 35 19 SE 981,6 10 0 0,0
13.12.2019 10:00:00 1,2 -1,1 0,6 0,5 1,8 6,9 21 11 29 16 SE 981,8 10 0 0,0
13.12.2019 09:00:00 0,9 -1,0 0,0 0,5 1,8 6,9 23 13 39 21 ESE 982,4 18 0 0,0
13.12.2019 08:00:00 0,8 -0,3 0,0 0,4 1,8 6,9 25 14 39 21 SE 983,8 12 0 0,1
13.12.2019 07:00:00 0,7 -1,0 0,2 0,4 1,8 7,0 26 14 35 19 SE 985,3 8 0 0,0
13.12.2019 06:00:00 0,9 -0,9 0,3 0,4 1,9 7,0 22 12 30 16 SE 987,0 10 0 0,0
13.12.2019 05:00:00 0,5 -1,1 -0,3 0,4 1,9 7,0 22 12 38 21 SE 988,2 10 0 0,0
13.12.2019 04:00:00 0,2 -1,1 -0,8 0,4 1,9 7,0 20 11 34 18 SE 989,9 18 0 0,0
13.12.2019 03:00:00 -0,1 -1,2 -1,5 0,4 2,0 7,0 18 10 26 14 ESE 991,6 13 0 0,0
13.12.2019 02:00:00 0,8 -0,6 -0,1 0,5 2,0 7,0 22 12 35 19 SE 993,2 15 0 0,0
13.12.2019 01:00:00 0,7 -0,3 -0,1 0,5 2,1 7,0 21 11 29 15 SE 994,8 10 0 0,0
13.12.2019 00:00:00 0,4 -0,4 -0,3 0,5 2,1 7,0 18 10 28 15 SE 996,6 9 0 0,0
12.12.2019 23:00:00 -0,5 -1,1 -1,7 0,5 2,2 7,1 13 7 20 11 SE 998,2 8 0 0,0
12.12.2019 22:00:00 0,3 -0,4 -1,1 0,5 2,3 7,1 15 8 20 11 SE 999,1 10 0 0,0
12.12.2019 21:00:00 0,7 0,0 -0,6 0,4 2,4 7,1 15 8 18 10 ESE 1000,4 10 0 0,0
12.12.2019 20:00:00 1,6 0,2 -0,3 1,5 2,5 7,1 9 5 16 9 SSE 1001,6 10 0 0,0
12.12.2019 19:00:00 2,9 1,5 2,4 1,9 2,4 7,1 9 5 13 7 SSE 1002,4 10 0 0,0
12.12.2019 18:00:00 2,6 1,2 1,8 2,0 2,4 7,1 9 5 11 6 S 1003,3 10 0 0,0
12.12.2019 17:00:00 3,2 1,6 2,7 2,3 2,3 7,1 9 5 15 8 S 1003,7 10 0 0,0
12.12.2019 16:00:00 3,2 1,6 2,7 2,4 2,1 7,1 11 6 16 8 S 1004,0 10 0 0,0
12.12.2019 15:00:00 3,2 1,5 2,7 1,9 1,9 7,2 9 5 18 10 S 1004,4 25 0 0,0
12.12.2019 14:00:00 3,0 1,8 2,4 1,0 1,9 7,2 11 6 18 10 S 1005,1 10 0 0,0
12.12.2019 13:00:00 2,5 1,4 1,9 0,7 1,9 7,2 9 5 16 9 S 1005,9 8 0 0,2
12.12.2019 12:00:00 2,6 1,2 1,9 0,8 1,9 7,2 9 5 14 8 SSE 1006,6 10 0 0,0
12.12.2019 11:00:00 2,1 1,1 1,5 0,9 1,9 7,2 9 5 15 8 S 1007,3 12 0 0,0
12.12.2019 10:00:00 1,2 0,7 0,8 0,9 1,9 7,2 8 4 13 7 ESE 1007,5 10 0 0,0
12.12.2019 09:00:00 0,8 0,3 0,3 0,8 1,9 7,2 13 7 15 8 E 1007,6 10 0 0,0
12.12.2019 08:00:00 0,6 0,2 -0,1 0,7 1,9 7,2 8 4 11 6 ESE 1007,5 10 0 0,0
12.12.2019 07:00:00 1,0 0,6 0,1 0,6 1,9 7,2 8 4 16 9 ESE 1007,3 13 0 0,0
12.12.2019 06:00:00 1,5 1,0 0,6 0,6 1,9 7,3 8 4 10 5 S 1007,1 10 0 0,0
12.12.2019 05:00:00 0,9 0,5 0,3 0,6 1,9 7,3 6 4 9 5 S 1007,1 7 0 0,0
12.12.2019 04:00:00 0,7 0,4 0,2 0,6 1,9 7,3 6 3 9 5 S 1007,5 5 0 0,3
12.12.2019 03:00:00 0,3 0,0 -0,1 0,5 1,9 7,3 5 3 9 5 S 1008,0 4,0 0 0,6
12.12.2019 02:00:00 0,4 0,1 -0,1 0,5 1,9 7,3 5 3 9 5 SSE 1008,0 4,5 0 0,5
12.12.2019 01:00:00 0,5 0,0 0,0 0,5 1,9 7,3 9 5 16 9 S 1008,4 4,5 0 0,5
12.12.2019 00:00:00 1,0 0,3 0,4 0,4 1,9 7,3 14 7 16 9 S 1008,6 7 0 0,2
11.12.2019 23:00:00 0,6 0,1 0,1 0,4 1,9 7,3 11 6 15 8 SSE 1009,1 5 0 0,3
11.12.2019 22:00:00 0,6 0,1 0,0 0,4 1,9 7,3 10 5 15 8 SSE 1009,5 4,5 0 0,6
11.12.2019 21:00:00 0,4 -0,3 -0,1 0,3 1,9 7,3 11 6 15 8 SE 1009,9 5 0 1,0
11.12.2019 20:00:00 0,3 -0,5 -0,1 0,3 2,0 7,3 9 5 11 6 ESE 1009,9 8 0 0,8
11.12.2019 19:00:00 0,1 -0,7 -0,2 0,3 2,0 7,3 8 4 13 7 SE 1010,4 8 0 1,2
11.12.2019 18:00:00 0,7 -1,4 -0,1 0,3 2,0 7,4 9 5 29 16 SSE 1010,1 9 0 1,0
11.12.2019 17:00:00 1,1 -1,9 -0,1 0,3 2,0 7,4 21 11 27 15 ESE 1010,3 10 0 0,7
11.12.2019 16:00:00 1,6 -3,2 1,1 0,2 2,0 7,4 15 8 24 13 SE 1011,0 10 0 0,0
11.12.2019 15:00:00 1,8 -3,3 1,4 0,2 2,1 7,4 16 9 22 12 SE 1011,6 10 0 0,0
11.12.2019 14:00:00 1,7 -3,6 1,5 0,2 2,1 7,4 15 8 29 16 SSE 1012,7 35 0 0,0
11.12.2019 13:00:00 1,4 -3,3 1,2 0,2 2,1 7,4 18 10 31 17 SE 1013,4 10 0 0,0
11.12.2019 12:00:00 0,9 -3,0 0,8 0,2 2,1 7,4 21 11 28 15 SE 1014,8 10 0 0,0
11.12.2019 11:00:00 0,3 -3,8 0,0 0,2 2,2 7,4 20 11 26 14 SE 1015,9 40 0 0,0
11.12.2019 10:00:00 -0,5 -4,0 -0,9 0,1 2,2 7,4 16 9 22 12 SE 1017,2 35 0 0,0
11.12.2019 09:00:00 -1,2 -4,0 -2,2 0,0 2,3 7,4 11 6 24 13 SE 1017,9 10 20 0,0
11.12.2019 08:00:00 -1,2 -4,1 -2,6 0,0 2,3 7,4 16 9 22 12 SE 1018,0 30 0 0,0
11.12.2019 07:00:00 -1,4 -3,9 -2,7 0,1 2,4 7,4 18 10 22 12 ESE 1018,4 25 0 0,0
11.12.2019 06:00:00 -1,3 -3,6 -2,7 0,2 2,5 7,4 14 8 18 10 ESE 1019,1 20 0 0,0
11.12.2019 05:00:00 -1,1 -3,2 -2,1 0,2 2,5 7,4 16 9 21 11 ESE 1020,1 20 0 0,0
11.12.2019 04:00:00 -1,4 -3,2 -2,6 0,2 2,6 7,4 11 6 16 9 ESE 1021,4 20 0 0,0
11.12.2019 03:00:00 -1,8 -3,4 -2,7 0,3 2,7 7,4 11 6 15 8 ESE 1022,4 20 0 0,0
11.12.2019 02:00:00 -2,3 -3,8 -3,8 0,3 2,8 7,4 11 6 17 9 ESE 1023,4 20 0 0,0
11.12.2019 01:00:00 -2,5 -3,9 -3,9 0,5 2,9 7,4 15 8 16 9 ESE 1024,3 15 0 0,0
11.12.2019 00:00:00 -2,2 -3,3 -3,6 0,6 3,1 7,4 13 7 15 8 ESE 1025,3 10 0 0,0
10.12.2019 23:00:00 -2,3 -3,5 -3,8 0,6 3,2 7,4 11 6 15 8 ESE 1026,0 10 0 0,0
10.12.2019 22:00:00 -1,6 -2,7 -3,1 0,6 3,3 7,4 12 7 13 7 E 1026,3 12 0 0,0
10.12.2019 21:00:00 -1,0 -2,2 -2,5 0,7 3,5 7,4 11 6 16 9 E 1026,7 10 0 0,0
10.12.2019 20:00:00 -1,1 -2,6 -2,5 0,8 3,7 7,4 13 7 15 8 E 1027,3 20 0 0,0
10.12.2019 19:00:00 0,6 -1,5 -1,9 0,9 3,9 7,4 8 4 11 6 ESE 1027,4 10 0 0,0
10.12.2019 18:00:00 0,8 -2,0 -1,6 0,9 4,2 7,4 9 5 18 10 S 1027,4 10 0 0,0
10.12.2019 17:00:00 2,0 -1,3 -1,3 1,7 4,5 7,4 8 4 15 8 S 1027,7 10 0 0,0
10.12.2019 16:00:00 3,4 -0,7 0,8 3,1 4,6 7,4 6 3 15 8 WSW 1027,5 25 47 0,0
10.12.2019 15:00:00 3,6 -0,7 2,2 4,2 4,6 7,4 11 6 21 11 WSW 1028,2 10 24 0,0
10.12.2019 14:00:00 4,2 -0,1 5,0 5,0 4,4 7,4 9 5 21 11 W 1028,3 28 19 0,0
10.12.2019 13:00:00 4,1 -0,1 4,7 5,5 4,2 7,4 15 8 22 12 W 1028,5 10 32 0,0
10.12.2019 12:00:00 3,3 -0,1 3,7 3,8 4,1 7,4 13 7 21 11 W 1028,5 10 13 0,0
10.12.2019 11:00:00 2,6 0,0 2,2 3,1 4,1 7,4 13 7 18 10 WNW 1028,2 23 2 0,0
10.12.2019 10:00:00 2,6 0,2 2,5 2,8 4,1 7,4 15 8 24 13 WNW 1027,9 23 0 0,0
10.12.2019 09:00:00 2,5 -0,1 2,1 2,4 4,2 7,3 15 8 27 15 WNW 1027,2 10 0 0,0
10.12.2019 08:00:00 2,5 0,0 2,0 2,4 4,3 7,3 16 9 27 14 W 1026,0 30 0 0,0
10.12.2019 07:00:00 2,7 0,3 2,1 2,3 4,4 7,3 18 10 28 15 W 1024,9 35 0 0,0
10.12.2019 06:00:00 2,4 0,1 1,6 2,0 4,6 7,3 18 10 27 14 WNW 1023,6 10 0 0,0
10.12.2019 05:00:00 2,3 0,0 1,0 2,3 4,8 7,3 16 9 29 16 WNW 1022,5 10 0 0,0
10.12.2019 04:00:00 2,9 0,7 1,8 2,6 5,1 7,3 18 10 29 16 WNW 1021,3 30 0 0,0
10.12.2019 03:00:00 3,8 1,8 2,5 3,6 5,2 7,3 18 10 29 15 WNW 1019,6 10 0 0,0
10.12.2019 02:00:00 4,3 2,3 3,4 4,2 5,3 7,3 24 13 44 24 NW 1018,0 25 0 0,1
10.12.2019 01:00:00 4,9 2,3 4,3 4,5 5,3 7,3 29 16 42 23 NW 1016,0 10 0 0,0
10.12.2019 00:00:00 5,3 3,4 4,9 4,7 5,4 7,3 20 11 31 17 WNW 1014,4 30 0 0,0
09.12.2019 23:00:00 5,3 3,6 4,9 4,8 5,4 7,3 21 11 31 17 W 1012,7 40 0 0,0
09.12.2019 22:00:00 5,2 3,8 4,6 4,7 5,5 7,3 15 8 24 13 W 1011,4 30 0 0,0
09.12.2019 21:00:00 4,9 3,5 4,3 4,6 5,6 7,3 14 8 22 12 W 1010,2 40 0 0,0
09.12.2019 20:00:00 4,8 3,6 3,8 4,9 5,7 7,3 9 5 29 16 W 1008,8 10 0 0,8
09.12.2019 19:00:00 5,5 3,4 4,5 5,3 5,8 7,3 19 11 35 19 W 1007,4 15 0 0,7
09.12.2019 18:00:00 6,6 3,2 5,7 5,4 5,9 7,2 13 7 28 15 WSW 1006,2 10 0 0,0
09.12.2019 17:00:00 6,6 3,2 5,4 5,5 5,9 7,2 15 8 29 16 WSW 1005,3 10 0 0,0
09.12.2019 16:00:00 8,0 2,7 7,1 6,3 5,9 7,2 21 11 35 19 SW 1004,3 40 0 0,0
09.12.2019 15:00:00 8,3 2,8 7,6 6,8 5,8 7,2 13 7 28 15 WSW 1003,6 10 0 0,0
09.12.2019 14:00:00 8,2 2,5 6,9 6,8 5,6 7,2 21 11 44 24 WSW 1003,4 10 3 0,0
09.12.2019 13:00:00 8,9 2,0 8,9 6,9 5,5 7,2 24 13 48 26 SW 1003,3 10 4 0,0
09.12.2019 12:00:00 8,3 2,2 8,0 6,8 5,3 7,2 17 9 38 20 SSW 1003,8 60 9 0,0
09.12.2019 11:00:00 8,0 2,5 7,6 6,5 5,1 7,2 18 10 35 19 SSW 1004,4 50 30 0,0
09.12.2019 10:00:00 6,4 3,1 5,6 4,4 5,1 7,2 11 6 26 14 S 1004,7 10 4 0,0
09.12.2019 09:00:00 5,6 2,9 4,3 3,6 5,3 7,2 11 6 24 13 SSE 1005,0 10 2 0,0
09.12.2019 08:00:00 5,4 2,7 3,7 3,7 5,4 7,2 15 8 21 11 S 1005,5 10 0 0,0
09.12.2019 07:00:00 6,0 2,8 4,7 4,5 5,5 7,2 11 6 27 15 SSW 1005,5 10 0 0,0
09.12.2019 06:00:00 6,4 2,8 5,7 4,9 5,6 7,2 16 9 26 14 S 1005,2 10 0 0,0
09.12.2019 05:00:00 6,0 3,1 4,7 4,8 5,8 7,2 9 5 27 15 S 1005,4 10 0 0,0
09.12.2019 04:00:00 6,4 3,1 4,7 4,9 5,9 7,2 16 9 32 17 SSW 1005,8 10 0 0,0
09.12.2019 03:00:00 7,1 4,0 6,2 5,6 6,0 7,1 14 7 29 16 SW 1006,4 35 0 0,0
09.12.2019 02:00:00 7,5 4,1 6,6 5,9 6,0 7,1 11 6 27 15 SSW 1005,6 10 0 0,0
09.12.2019 01:00:00 7,7 3,9 6,7 6,3 6,0 7,1 20 11 46 25 WSW 1005,2 35 0 0,0
09.12.2019 00:00:00 7,8 5,4 6,6 7,0 6,0 7,1 32 18 49 26 W 1005,5 9 0 1,1
08.12.2019 23:00:00 9,0 6,8 8,2 7,0 5,9 7,1 16 9 28 15 S 1004,4 10 0 0,0
08.12.2019 22:00:00 9,6 6,5 8,7 6,9 5,8 7,1 21 11 34 18 SSW 1004,6 10 0 0,0
08.12.2019 21:00:00 8,8 5,6 7,7 6,5 5,8 7,1 16 9 24 13 S 1005,3 40 0 0,0
08.12.2019 20:00:00 8,3 5,8 6,8 6,4 5,8 7,1 13 7 27 15 S 1005,6 10 0 0,5
08.12.2019 19:00:00 8,5 5,3 7,7 6,4 5,8 7,1 16 9 26 14 S 1006,0 40 0 0,1
08.12.2019 18:00:00 8,3 5,2 7,4 6,5 5,7 7,1 18 10 25 13 S 1006,7 10 0 0,1
08.12.2019 17:00:00 8,8 5,2 7,0 6,6 5,7 7,1 16 8 24 13 SSE 1007,3 35 0 0,0
08.12.2019 16:00:00 9,9 4,9 9,0 6,8 5,6 7,1 15 8 24 13 S 1007,5 10 0 0,0
08.12.2019 15:00:00 9,9 4,5 9,1 6,9 5,5 7,1 16 9 29 15 SSW 1008,4 10 14 0,0
08.12.2019 14:00:00 9,3 4,3 8,8 7,1 5,3 7,1 18 10 26 14 S 1009,3 60 0 0,0
08.12.2019 13:00:00 8,7 4,1 8,2 6,8 5,1 7,1 16 9 27 15 S 1010,7 10 0 0,0
08.12.2019 12:00:00 8,4 3,9 8,2 6,9 4,9 7,1 21 11 31 17 S 1011,5 10 0 0,0
08.12.2019 11:00:00 7,6 3,6 7,4 6,0 4,8 7,1 21 11 27 14 S 1012,7 10 0 0,0
08.12.2019 10:00:00 7,4 3,6 6,8 5,4 4,7 7,1 14 8 22 12 S 1013,6 60 0 0,0
08.12.2019 09:00:00 6,8 3,8 6,2 5,0 4,7 7,1 13 7 21 11 S 1014,0 45 0 0,0
08.12.2019 08:00:00 6,4 3,8 5,7 4,8 4,6 7,1 12 7 18 10 S 1014,5 40 0 0,0
08.12.2019 07:00:00 6,6 3,8 5,8 4,8 4,6 7,1 11 6 21 11 S 1015,0 10 0 0,0
08.12.2019 06:00:00 6,5 4,1 5,8 4,8 4,6 7,1 15 8 22 12 SSE 1015,4 10 0 0,0
08.12.2019 05:00:00 6,3 4,4 5,7 4,8 4,5 7,1 15 8 22 12 S 1015,7 30 0 0,0

tt = temperature
td = dewpoint
tt 5cm = temperature 5cm
tt -5cm = temperature -5cm
tt -20cm = temperature -20cm
tt -100cm = temperature -100cm
ff = wind speed
fx = gusts
dd = wind direction
ppp = reduced air pressure
vv = visibility
sd = sunshine duration
rr = precipitation

Next stations